• In Germany
  • List of Countries
  • For 7 days
  • Water Temperature
  • Satellite Maps
  • Weather Map
  • Weather Widgets
  • user-avatar
    Login

    Hourly Weather Lankaran

    Today, 18 January, Thursday

    Time Temperature Precipitation Wind Pressure Humidity
    00:00 -4°C° 0 mm 2 mps 629 mmHg 63%
    01:00 -4°C° 0 mm 2 mps 629 mmHg 63%
    02:00 -4°C° 0 mm 2 mps 628 mmHg 62%
    03:00 -4°C° 0 mm 2 mps 628 mmHg 63%
    04:00 -5°C° 0 mm 3 mps 628 mmHg 63%
    05:00 -5°C° 0 mm 3 mps 628 mmHg 63%
    06:00 -5°C° 0 mm 3 mps 628 mmHg 63%
    07:00 -4°C° 0 mm 3 mps 628 mmHg 61%
    08:00 -2°C° 0 mm 3 mps 629 mmHg 60%
    09:00 -1°C° 0 mm 3 mps 629 mmHg 58%
    10:00 -1°C° 0 mm 4 mps 629 mmHg 56%
    11:00 0°C° 0 mm 4 mps 629 mmHg 54%
    12:00 +1°C° 0 mm 5 mps 629 mmHg 52%
    13:00 +2°C° 0 mm 5 mps 628 mmHg 52%
    14:00 +2°C° 0 mm 5 mps 628 mmHg 52%
    15:00 +2°C° 0 mm 5 mps 627 mmHg 52%
    16:00 +1°C° 0 mm 5 mps 627 mmHg 54%
    17:00 -1°C° 0 mm 5 mps 627 mmHg 56%
    18:00 -2°C° 0 mm 4 mps 626 mmHg 58%
    19:00 -2°C° 0 mm 4 mps 626 mmHg 59%
    20:00 -2°C° 0 mm 4 mps 626 mmHg 60%
    21:00 -2°C° 0 mm 4 mps 626 mmHg 61%
    22:00 -2°C° 0 mm 4 mps 626 mmHg 62%
    23:00 -2°C° 0 mm 4 mps 626 mmHg 64%

    Tomorrow, 19 January, Friday

    Time Temperature Precipitation Wind Pressure Humidity
    00:00 -2°C° 0 mm 5 mps 626 mmHg 65%
    01:00 -2°C° 0 mm 5 mps 625 mmHg 65%
    02:00 -2°C° 0 mm 5 mps 625 mmHg 65%
    03:00 -2°C° 0 mm 5 mps 625 mmHg 65%
    04:00 -2°C° 0 mm 4 mps 625 mmHg 65%
    05:00 -2°C° 0 mm 4 mps 625 mmHg 66%
    06:00 -2°C° 0 mm 4 mps 625 mmHg 66%
    07:00 -1°C° 0 mm 4 mps 626 mmHg 63%
    08:00 0°C° 0 mm 4 mps 626 mmHg 59%
    09:00 +1°C° 0 mm 4 mps 627 mmHg 56%
    10:00 +3°C° 0 mm 4 mps 627 mmHg 52%
    11:00 +4°C° 0 mm 4 mps 627 mmHg 48%
    12:00 +6°C° 0 mm 5 mps 627 mmHg 44%
    13:00 +6°C° 0 mm 4 mps 627 mmHg 43%
    14:00 +6°C° 0 mm 4 mps 627 mmHg 41%
    15:00 +6°C° 0 mm 4 mps 627 mmHg 40%
    16:00 +4°C° 0 mm 4 mps 627 mmHg 42%
    17:00 +3°C° 0 mm 3 mps 627 mmHg 45%
    18:00 +2°C° 0 mm 2 mps 627 mmHg 47%
    19:00 +2°C° 0 mm 2 mps 627 mmHg 46%
    20:00 +2°C° 0 mm 2 mps 627 mmHg 46%
    21:00 +3°C° 0 mm 1 mps 627 mmHg 45%
    22:00 +3°C° 0 mm 1 mps 627 mmHg 47%
    23:00 +3°C° 0 mm 1 mps 628 mmHg 49%

    Day after tomorrow, 20 January, Saturday

    Time Temperature Precipitation Wind Pressure Humidity
    00:00 +2°C° 0 mm 2 mps 628 mmHg 51%
    01:00 +2°C° 0.1 mm 2 mps 628 mmHg 55%
    02:00 +1°C° 0.1 mm 2 mps 628 mmHg 59%
    03:00 +1°C° 0.1 mm 2 mps 628 mmHg 62%
    04:00 +1°C° 0 mm 2 mps 629 mmHg 65%
    05:00 -1°C° 0 mm 2 mps 629 mmHg 68%
    06:00 -2°C° 0 mm 2 mps 629 mmHg 71%
    07:00 -1°C° 0 mm 2 mps 630 mmHg 71%
    08:00 -1°C° 0 mm 2 mps 631 mmHg 72%
    09:00 +1°C° 0 mm 2 mps 631 mmHg 72%
    10:00 +1°C° 0.1 mm 2 mps 632 mmHg 71%
    11:00 +2°C° 0.1 mm 2 mps 632 mmHg 70%
    12:00 +2°C° 0.1 mm 2 mps 632 mmHg 69%
    13:00 +2°C° 0.2 mm 2 mps 632 mmHg 71%
    14:00 +2°C° 0.2 mm 2 mps 632 mmHg 74%
    15:00 +2°C° 0.2 mm 2 mps 633 mmHg 76%
    16:00 +1°C° 0.2 mm 2 mps 633 mmHg 79%
    17:00 -1°C° 0.2 mm 2 mps 633 mmHg 82%
    18:00 -1°C° 0.2 mm 2 mps 634 mmHg 84%
    19:00 -2°C° 0.1 mm 2 mps 634 mmHg 82%
    20:00 -2°C° 0.1 mm 2 mps 634 mmHg 80%
    21:00 -2°C° 0.1 mm 2 mps 634 mmHg 78%
    22:00 -2°C° 0 mm 3 mps 634 mmHg 74%
    23:00 -2°C° 0 mm 3 mps 634 mmHg 70%

    21 January, Sunday

    Time Temperature Precipitation Wind Pressure Humidity
    00:00 -4°C° 0 mm 3 mps 634 mmHg 66%
    01:00 -4°C° 0 mm 3 mps 634 mmHg 63%
    02:00 -4°C° 0 mm 3 mps 634 mmHg 61%
    03:00 -4°C° 0 mm 3 mps 633 mmHg 59%
    04:00 -4°C° 0 mm 3 mps 633 mmHg 59%
    05:00 -4°C° 0 mm 3 mps 633 mmHg 60%
    06:00 -4°C° 0 mm 3 mps 633 mmHg 61%
    07:00 -1°C° 0 mm 3 mps 634 mmHg 58%
    08:00 0°C° 0 mm 3 mps 634 mmHg 55%
    09:00 +1°C° 0 mm 3 mps 635 mmHg 52%
    10:00 +2°C° 0 mm 3 mps 635 mmHg 49%
    11:00 +4°C° 0 mm 3 mps 635 mmHg 45%
    12:00 +5°C° 0 mm 3 mps 634 mmHg 42%
    13:00 +5°C° 0 mm 3 mps 634 mmHg 41%
    14:00 +5°C° 0 mm 3 mps 634 mmHg 41%
    15:00 +5°C° 0 mm 3 mps 634 mmHg 41%
    16:00 +4°C° 0 mm 3 mps 633 mmHg 44%
    17:00 +2°C° 0 mm 3 mps 633 mmHg 47%
    18:00 +2°C° 0 mm 2 mps 633 mmHg 50%
    19:00 +1°C° 0 mm 2 mps 633 mmHg 47%
    20:00 +1°C° 0 mm 2 mps 633 mmHg 44%
    21:00 +1°C° 0 mm 2 mps 633 mmHg 42%
    22:00 +1°C° 0 mm 2 mps 633 mmHg 41%
    23:00 +1°C° 0 mm 2 mps 633 mmHg 40%

    22 January, Monday

    Time Temperature Precipitation Wind Pressure Humidity
    00:00 +1°C° 0 mm 2 mps 633 mmHg 39%
    01:00 +1°C° 0 mm 2 mps 633 mmHg 39%
    02:00 +1°C° 0 mm 2 mps 632 mmHg 38%
    03:00 +1°C° 0 mm 2 mps 632 mmHg 38%
    04:00 +1°C° 0 mm 2 mps 632 mmHg 38%
    05:00 +1°C° 0 mm 2 mps 632 mmHg 38%
    06:00 -1°C° 0 mm 2 mps 632 mmHg 38%
    07:00 +2°C° 0 mm 2 mps 632 mmHg 38%
    08:00 +3°C° 0 mm 2 mps 632 mmHg 39%
    09:00 +4°C° 0 mm 2 mps 632 mmHg 39%
    10:00 +5°C° 0 mm 2 mps 632 mmHg 39%
    11:00 +5°C° 0 mm 3 mps 631 mmHg 40%
    12:00 +7°C° 0 mm 3 mps 631 mmHg 40%
    13:00 +7°C° 0 mm 3 mps 631 mmHg 40%
    14:00 +7°C° 0 mm 3 mps 630 mmHg 40%
    15:00 +7°C° 0 mm 3 mps 630 mmHg 40%
    16:00 +5°C° 0 mm 3 mps 629 mmHg 41%
    17:00 +3°C° 0 mm 3 mps 629 mmHg 43%
    18:00 +2°C° 0 mm 3 mps 629 mmHg 44%
    19:00 +1°C° 0 mm 3 mps 629 mmHg 42%
    20:00 +1°C° 0 mm 3 mps 628 mmHg 39%
    21:00 +1°C° 0 mm 3 mps 628 mmHg 36%
    22:00 +1°C° 0 mm 3 mps 628 mmHg 36%
    23:00 0°C° 0 mm 3 mps 628 mmHg 36%

    23 January, Tuesday

    Time Temperature Precipitation Wind Pressure Humidity
    00:00 -1°C° 0 mm 4 mps 628 mmHg 35%
    01:00 0°C° 0 mm 3 mps 628 mmHg 35%
    02:00 0°C° 0 mm 3 mps 628 mmHg 35%
    03:00 0°C° 0 mm 3 mps 628 mmHg 35%
    04:00 0°C° 0 mm 3 mps 628 mmHg 35%
    05:00 -1°C° 0 mm 3 mps 628 mmHg 35%
    06:00 -1°C° 0 mm 3 mps 628 mmHg 35%
    07:00 +1°C° 0 mm 3 mps 628 mmHg 34%
    08:00 +2°C° 0 mm 3 mps 629 mmHg 33%
    09:00 +3°C° 0 mm 3 mps 629 mmHg 32%
    10:00 +4°C° 0 mm 3 mps 629 mmHg 32%
    11:00 +6°C° 0 mm 4 mps 629 mmHg 31%
    12:00 +7°C° 0 mm 4 mps 629 mmHg 31%
    13:00 +7°C° 0 mm 4 mps 629 mmHg 32%
    14:00 +7°C° 0 mm 4 mps 629 mmHg 33%
    15:00 +7°C° 0 mm 4 mps 629 mmHg 34%
    16:00 +5°C° 0 mm 3 mps 629 mmHg 37%
    17:00 +4°C° 0 mm 3 mps 628 mmHg 40%
    18:00 +3°C° 0 mm 2 mps 628 mmHg 44%
    19:00 +3°C° 0 mm 2 mps 628 mmHg 45%
    20:00 +4°C° 0 mm 2 mps 629 mmHg 47%
    21:00 +4°C° 0 mm 2 mps 629 mmHg 49%
    22:00 +3°C° 0.1 mm 2 mps 629 mmHg 52%
    23:00 +3°C° 0.1 mm 2 mps 628 mmHg 54%
    Show more